SES-6                   
1 39172U 13026A   19266.14007635 -.00000271  00000-0  00000+0 0  9994
2 39172   0.0503 304.7463 0002062 254.2697 172.6276  1.00270980 23063
BREEZE-M R/B            
1 39173U 13026B   19258.78047588 -.00000374  00000-0  00000+0 0  9991
2 39173  24.6958 177.3884 7439029 184.3446 160.5023  1.10513862 25383
BREEZE-M DEB [TANK]     
1 39174U 13026C   19263.99854825  .00000445  00000-0  15661-3 0  9992
2 39174  50.7131 101.2336 5180263 108.2576 313.0356  5.26814890120987